Regional Weather Roundup
Issued by NWS

Home | Current Version | Previous Version | Text Only | Print | Product List | Glossary Off
Versions: 1 2 3 4 5 6 7 8 9 10 11 12 13 14 15 16 17 18 19 20 21 22 23 24 25 26 27 28 29 30 31 32 33 34 35 36 37 38 39 40 41 42 43 44 45 46 47 48 49 50

000
ASUS45 KCYS 240810
RWRWY

WYOMING REGIONAL WEATHER ROUNDUP
NATIONAL WEATHER SERVICE CHEYENNE WY
200 AM MDT SAT SEP 24 2016

NOTE:  "FAIR" INDICATES FEW OR NO CLOUDS BELOW 12,000 FEET
WITH NO SIGNIFICANT WEATHER AND/OR OBSTRUCTIONS TO VISIBILITY.

WYZ001-240900-
YELLOWSTONE NATIONAL PARK

CITY           SKY/WX    TMP DP  RH WIND       PRES   REMARKS
LK YELLOWSTONE   N/A     39  38  96 NW9G23    29.99F WCI  33
W YELLOWSTONE  NOT AVBL

$$
WYZ002>013-054>058-071-098>099-240900-
NORTHERN WYOMING

CITY           SKY/WX    TMP DP  RH WIND       PRES   REMARKS
JACKSON        CLOUDY    39  39 100 S5        30.01S
CODY           CLOUDY    46  45  93 CALM      29.94F
GREYBULL       LGT RAIN  51  49  92 W5        29.91R
WORLAND        LGT RAIN  49  48  97 N3        29.90S
SHERIDAN       RAIN      50  49  96 SW5       29.90R FOG
BUFFALO        RAIN      49  46  90 N5        29.92S FOG
GILLETTE       RAIN      49  49 100 W8        29.89R FOG
HULETT         LGT RAIN  52  50  93 CALM      29.88R
NEWCASTLE      DRIZZLE   48  48 100 SW7       29.87F

$$
WYZ014>020-022>026-101>103-240900-
CENTRAL WYOMING

CITY           SKY/WX    TMP DP  RH WIND       PRES   REMARKS
BIG PINEY      LGT RAIN  41  37  86 CALM      30.01R
PINEDALE       CLOUDY    37  37 100 CALM      30.01S
DUBOIS         CLOUDY    39  36  87 NW7       29.96S WCI  34
LANDER         CLOUDY    46  41  82 W5        29.93R
RIVERTON       MOCLDY    45  43  93 N9        29.92S
CASPER         LGT RAIN  46  39  76 SW14      29.92F
DOUGLAS        LGT RAIN  45  41  86 W14       29.91F

$$
WYZ021-027>030-104>119-240900-
SOUTHERN WYOMING

CITY           SKY/WX    TMP DP  RH WIND       PRES   REMARKS
EVANSTON       SNOW      33  31  92 SW17      30.04S VSB 1/2 WCI  22
FORT BRIDGER   FLURRIES  36  36 100 W10       30.06S WCI  28
ROCK SPRINGS   CLOUDY    38  36  92 SW9       30.04S WCI  31
DIXON          DRIZZLE   42  34  72 SW13G20   30.09R
RAWLINS        CLOUDY    40  33  76 SW18G28   30.02R WCI  31
SARATOGA       CLOUDY    39  32  75 SW14      30.03F WCI  31
LARAMIE        CLOUDY    33  32  96 NW7       30.02R WCI  27
CHEYENNE       LGT RAIN  41  35  79 N13       30.01R
TORRINGTON     LGT RAIN  47  44  90 W14G23    29.93R
PINE BLUFFS    RAIN      39  37  93 NW20G26   30.05R WCI  30

$$



USA.gov is the U.S. government's official web portal to all federal, state and local government web resources and services.